THOR ABLESTAR DEB

Satellite information

Favourite Embed

Satellite Type and Status

DEBRISIN ORBIT

Key statistics

Satellite THOR ABLESTAR DEB at a glance.

Uptime

23484

Days in orbit

Revolutions

≈ 14.3

Per day

Orbit

LEO

Low Earth Orbit

Inclination

66.9

Latest

Satellite identification and parameters

Extended collection of information and parameters for THOR ABLESTAR DEB.

Object identification

Identified? True

Debris? True

Object name: THOR ABLESTAR DEB

International designator: 1961-015KN

Object number (NORAD): 6748

Object ID (CCSDS): 6748

Country: UNITED STATES OF AMERICA (US)

Current information (Y/N): Y

RCS size: SMALL

Orbital parameters

Period: 100.506 minutes

Inclination: 66.8925 deg

SMA: 7160.691 km

Apoapsis: 823.405 km

Periapsis: 741.706 km

RAAN: 241.7094 deg

Eccentricy: 0.00570471

Argument of periapsis: 133.6108 deg

Mean anomaly: 226.9747 deg

Mean motion: 14.32749884 rev/day

Mean motion (dot): 0.00007044 rev/day2

B* drag term: 0.0025638173 1/REarth

Two-line elements (TLE)

Creation date: Oct. 14, 2025, 5:26 p.m.

Reference frame: TEME

Reference center: EARTH

Epoch: Oct. 14, 2025, 7:06 a.m. UTC

TLE line 0: 0 THOR ABLESTAR DEB

TLE line 1: 1 06748U 61015KN 25287.29583530 .00007044 00000-0 25638-2 0 9998

TLE line 2: 2 06748 66.8925 241.7094 0057047 133.6108 226.9747 14.32749884255396

Live tracking on map

Real-time ground track for satellite THOR ABLESTAR DEB.

In-orbit conjunctions

A list of the most updated potential collisions computed for object THOR ABLESTAR DEB.

Target Orbit TCA Probability of collision Miss distance Type
FENGYUN 1C SSO 2025-01-13 03:09:58 0.0001787718 576.0 (m) PAYLOAD
CBERS 1 SSO 2024-07-05 20:44:30 0.0002171892 545.0 (m) PAYLOAD

Associated space launch

THOR ABLESTAR DEB was lifted into orbit during the mission ‘Thor DM-21 Ablestar | Transit 4A & Injun-1 & Solrad 3’, on board a Thor DM-21 Ablestar space rocket.

The launch took place on June 29, 1961, 4:23 a.m. from Space Launch Complex 17B.

For more information about the launch, click the button.

Launch to space Thor DM-21 Ablestar | Transit 4A & Injun-1 & Solrad 3
Thor DM-21 Ablestar | Transit 4A & Injun-1 & Solrad 3

Agency: N/A

Status: Launch Successful

Launch date: June 29, 1961, 4:23 a.m. UTC

Rocket: Thor DM-21 Ablestar

Launch pad: Space Launch Complex 17B

Location: Cape Canaveral SFS, FL, USA

...

Latest news about this satellite

There are no fresh news available about this satellite. Check back as we update our databases every day.


Newsletter sign-up

Weekly statistics, charts and insights to help you stay on top of the space industry.